Date String (YYYY-MM-DD hh:mm:ss) UTC,Instrument flags,absolute air pressure of the measurement (hPa),sample flow rate (lpm),inlet stack bypass flow (lpm),air temperature of the measurement (°C),ambient temperature measured by the external sensor (°C),aerosol sample conditioner tube jacket temperature (°C),OPC LED temperature (°C),internal box temperature (°C),relative humidity of the measurement (%),span deviation,mass concentration of particles derived from Lorenz-Mie calculation of OPC scattering (μg/m³),mass concentration of particles derived from Lorenz-Mie calculation of OPC scattering (μg/m³),mass concentration of particles derived from Lorenz-Mie calculation of OPC scattering (μg/m³)
DateTimeUTC,F1_M11,P_M11,Q1_M11,Q2_M11,T1_M11,T2_M11,T3_M11,T4_M11,T5_M11,U1_M11,ZSPAN_M11,X0_M11,X2_M11,X1_M11
2023-11-07 08:00:00,SystemResetWarning,0823.0,4.99,000.00,028.1,027.0,000.0,036.5,029.4,8.8,0000.0,0008.61,0003.10,0002.40
2023-11-07 08:01:00,SystemResetWarning,0823.1,5.00,000.00,028.1,026.9,000.0,036.5,029.4,8.9,0000.0,0008.83,0003.10,0002.39
2023-11-07 08:02:00,SystemResetWarning,0822.8,5.01,000.00,028.1,026.9,000.0,036.5,029.4,8.9,0000.0,0009.35,0003.13,0002.43
2023-11-07 08:03:00,SystemResetWarning,0822.7,5.02,000.00,028.1,026.9,000.0,036.5,029.4,8.7,0000.0,0009.41,0003.15,0002.44
2023-11-07 08:04:00,SystemResetWarning,0822.8,5.00,000.00,028.1,026.9,000.0,036.5,029.4,8.7,0000.0,0009.27,0003.15,0002.42
2023-11-07 08:05:00,SystemResetWarning,0822.7,5.00,000.00,028.1,026.9,000.0,036.5,029.4,8.6,0000.0,0008.69,0003.14,0002.40
2023-11-07 08:06:00,SystemResetWarning,0822.6,5.00,000.00,028.1,026.9,000.0,036.5,029.4,8.7,0000.0,0008.34,0003.06,0002.37
2023-11-07 08:07:00,SystemResetWarning,0822.6,5.00,000.00,028.1,026.9,000.0,036.5,029.4,8.7,0000.0,0007.33,0003.02,0002.38
2023-11-07 08:08:00,SystemResetWarning,0822.6,5.00,000.00,028.1,026.9,000.0,036.5,029.4,8.7,0000.0,0007.29,0003.06,0002.38
2023-11-07 08:09:00,SystemResetWarning,0822.6,5.00,000.00,028.1,026.9,000.0,036.5,029.4,8.7,0000.0,0007.87,0003.06,0002.36
2023-11-07 08:10:00,SystemResetWarning,0822.6,5.00,000.00,028.1,026.9,000.0,036.5,029.4,8.8,0000.0,0007.45,0002.97,0002.31
2023-11-07 08:11:00,SystemResetWarning,0822.7,5.00,000.00,028.1,026.9,000.0,036.5,029.4,8.8,0000.0,0007.25,0002.96,0002.31
2023-11-07 08:12:00,SystemResetWarning,0822.8,5.00,000.00,028.1,026.9,000.0,036.5,029.4,8.8,0000.0,0007.33,0003.05,0002.36
2023-11-07 08:13:00,SystemResetWarning,0822.7,5.00,000.00,028.0,026.9,000.0,036.5,029.4,8.7,0000.0,0006.15,0003.05,0002.36
2023-11-07 08:14:00,SystemResetWarning,0822.7,5.00,000.00,028.0,026.9,000.0,036.5,029.4,8.8,0000.0,0006.57,0003.09,0002.38
2023-11-07 08:15:00,SystemResetWarning,0822.7,4.99,000.00,028.0,026.8,000.0,036.5,029.3,8.7,0000.0,0006.67,0003.13,0002.43
2023-11-07 08:16:00,SystemResetWarning,0822.8,5.00,000.00,028.0,026.8,000.0,036.5,029.4,8.7,0000.0,0006.76,0003.17,0002.47
2023-11-07 08:17:00,SystemResetWarning,0822.7,5.00,000.00,028.0,026.8,000.0,036.5,029.3,8.6,0000.0,0006.90,0003.19,0002.48
2023-11-07 08:18:00,SystemResetWarning,0822.7,5.00,000.00,028.0,026.8,000.0,036.4,029.4,8.7,0000.0,0007.39,0003.19,0002.47
2023-11-07 08:19:00,SystemResetWarning,0822.8,5.00,000.00,028.0,026.8,000.0,036.4,029.4,8.8,0000.0,0007.58,0003.19,0002.45
2023-11-07 08:20:00,SystemResetWarning,0822.7,5.01,000.00,028.0,026.8,000.0,036.4,029.4,8.7,0000.0,0006.47,0003.16,0002.43
2023-11-07 08:21:00,SystemResetWarning,0822.8,5.00,000.00,028.0,026.8,000.0,036.4,029.4,8.7,0000.0,0006.74,0003.19,0002.43
2023-11-07 08:22:00,SystemResetWarning,0822.7,5.01,000.00,028.0,026.8,000.0,036.4,029.3,8.8,0000.0,0007.59,0003.20,0002.41
2023-11-07 08:23:00,SystemResetWarning,0822.6,5.00,000.00,028.0,026.7,000.0,036.4,029.3,8.7,0000.0,0007.66,0003.16,0002.38
2023-11-07 08:24:00,SystemResetWarning,0822.7,5.00,000.00,028.0,026.7,000.0,036.4,029.3,8.6,0000.0,0007.68,0003.10,0002.33
2023-11-07 08:25:00,SystemResetWarning,0822.8,5.00,000.00,028.0,026.7,000.0,036.4,029.3,8.6,0000.0,0007.37,0003.02,0002.28
2023-11-07 08:26:00,SystemResetWarning,0822.7,5.00,000.00,028.0,026.7,000.0,036.4,029.3,8.7,0000.0,0007.39,0002.98,0002.26
2023-11-07 08:27:00,SystemResetWarning,0822.6,4.99,000.00,027.9,026.7,000.0,036.4,029.3,8.7,0000.0,0007.52,0002.95,0002.23
2023-11-07 08:28:00,SystemResetWarning,0822.6,5.00,000.00,027.9,026.7,000.0,036.4,029.3,8.7,0000.0,0007.65,0003.02,0002.21
2023-11-07 08:29:00,SystemResetWarning,0822.6,5.00,000.00,027.9,026.7,000.0,036.4,029.3,8.7,0000.0,0007.40,0003.03,0002.21
2023-11-07 08:30:00,SystemResetWarning,0822.8,5.00,000.00,027.9,026.7,000.0,036.4,029.3,8.7,0000.0,0007.08,0003.02,0002.22
2023-11-07 08:31:00,SystemResetWarning,0823.0,5.00,000.00,027.9,026.7,000.0,036.4,029.3,8.7,0000.0,0007.02,0003.02,0002.23
2023-11-07 08:32:00,SystemResetWarning,0823.1,5.00,000.00,027.9,026.8,000.0,036.4,029.3,8.7,0000.0,0006.91,0003.00,0002.25
2023-11-07 08:33:00,SystemResetWarning,0823.0,5.00,000.00,027.9,026.8,000.0,036.4,029.3,8.7,0000.0,0005.98,0003.07,0002.29
2023-11-07 08:34:00,SystemResetWarning,0822.7,5.00,000.00,027.9,026.8,000.0,036.4,029.3,8.7,0000.0,0005.76,0003.10,0002.31
2023-11-07 08:35:00,SystemResetWarning,0822.6,5.01,000.00,027.9,026.8,000.0,036.4,029.3,8.7,0000.0,0005.61,0003.11,0002.32
2023-11-07 08:36:00,SystemResetWarning,0822.8,5.01,000.00,028.0,026.8,000.0,036.4,029.3,8.7,0000.0,0006.78,0003.14,0002.36
2023-11-07 08:37:00,SystemResetWarning,0822.8,5.00,000.00,027.9,026.8,000.0,036.4,029.3,8.7,0000.0,0007.36,0003.15,0002.38
2023-11-07 08:38:00,SystemResetWarning,0822.6,5.00,000.00,027.9,026.7,000.0,036.4,029.3,8.9,0000.0,0007.29,0003.16,0002.42
2023-11-07 08:39:00,SystemResetWarning,0822.9,5.00,000.00,027.9,026.7,000.0,036.4,029.3,8.9,0000.0,0007.50,0003.13,0002.46
2023-11-07 08:40:00,SystemResetWarning,0822.9,4.99,000.00,027.9,026.7,000.0,036.4,029.3,9.0,0000.0,0008.19,0003.14,0002.48
2023-11-07 08:41:00,SystemResetWarning,0822.8,4.99,000.00,027.9,026.7,000.0,036.4,029.3,8.9,0000.0,0008.34,0003.15,0002.49
2023-11-07 08:42:00,SystemResetWarning,0822.7,5.00,000.00,027.9,026.7,000.0,036.3,029.3,8.8,0000.0,0009.29,0003.18,0002.51
2023-11-07 08:43:00,SystemResetWarning,0823.0,5.00,000.00,027.9,026.7,000.0,036.3,029.3,8.8,0000.0,0009.70,0003.19,0002.51
2023-11-07 08:44:00,SystemResetWarning,0822.9,5.00,000.00,027.9,026.7,000.0,036.3,029.3,8.8,0000.0,0009.85,0003.16,0002.51
2023-11-07 08:45:00,SystemResetWarning,0822.7,5.01,000.00,027.9,026.7,000.0,036.3,029.3,8.7,0000.0,0010.02,0003.19,0002.53
2023-11-07 08:46:00,SystemResetWarning,0822.8,5.00,000.00,027.9,026.7,000.0,036.3,029.3,8.7,0000.0,0009.98,0003.22,0002.56
2023-11-07 08:47:00,SystemResetWarning,0822.7,5.00,000.00,027.9,026.8,000.0,036.3,029.3,8.5,0000.0,0009.56,0003.24,0002.57
2023-11-07 08:48:00,SystemResetWarning,0822.7,5.00,000.00,027.9,026.8,000.0,036.3,029.3,8.3,0000.0,0009.29,0003.25,0002.58
2023-11-07 08:49:00,SystemResetWarning,0822.6,5.00,000.00,027.9,026.8,000.0,036.3,029.3,8.5,0000.0,0009.22,0003.25,0002.57
2023-11-07 08:50:00,SystemResetWarning,0822.6,5.00,000.00,027.9,026.8,000.0,036.3,029.3,8.7,0000.0,0008.97,0003.25,0002.54
2023-11-07 08:51:00,SystemResetWarning,0822.9,4.99,000.00,027.9,026.7,000.0,036.3,029.3,8.5,0000.0,0008.36,0003.24,0002.53
2023-11-07 08:52:00,SystemResetWarning,0822.7,4.99,000.00,027.9,026.7,000.0,036.3,029.3,8.6,0000.0,0008.24,0003.23,0002.53
2023-11-07 08:53:00,SystemResetWarning,0822.6,5.00,000.00,027.9,026.7,000.0,036.3,029.3,8.6,0000.0,0007.49,0003.21,0002.51
2023-11-07 08:54:00,SystemResetWarning,0822.7,5.00,000.00,027.9,026.7,000.0,036.3,029.3,8.6,0000.0,0007.49,0003.19,0002.49
2023-11-07 08:55:00,SystemResetWarning,0822.7,5.01,000.00,027.9,026.7,000.0,036.3,029.3,8.6,0000.0,0007.33,0003.17,0002.45
2023-11-07 08:56:00,SystemResetWarning,0822.8,5.01,000.00,027.9,026.7,000.0,036.3,029.2,8.6,0000.0,0007.27,0003.15,0002.41
2023-11-07 08:57:00,SystemResetWarning,0822.8,5.01,000.00,027.9,026.7,000.0,036.3,029.2,8.5,0000.0,0007.13,0003.12,0002.37
2023-11-07 08:58:00,SystemResetWarning,0822.6,5.00,000.00,027.9,026.7,000.0,036.3,029.3,8.4,0000.0,0006.75,0003.08,0002.33
2023-11-07 08:59:00,SystemResetWarning,0822.6,5.00,000.00,027.9,026.7,000.0,036.3,029.3,8.4,0000.0,0006.38,0002.98,0002.29
